Regional Weather Roundup
Issued by NWS Kansas City/Pleasant Hill, MO

Home | Current Version | Previous Version | Graphics & Text | Print | Product List | Glossary Off
Versions: 1 2 3 4 5 6 7 8 9 10 11 12 13 14 15 16 17 18 19 20 21 22 23 24 25 26 27 28 29 30 31 32 33 34 35 36 37 38 39 40 41 42 43 44 45 46 47 48 49 50

812
ASUS43 KEAX 221410
RWREAX

WEATHER ROUNDUP FOR EASTERN KANSAS AND NORTHWEST MISSOURI
NATIONAL WEATHER SERVICE KANSAS CITY/PLEASANT HILL MO
900 AM CDT FRI MAY 22 2015

KSZ040-057-103>105-MOZ028-029-037-043-221500-
...KANSAS CITY METROPOLITAN AREA...

CITY           SKY/WX    TMP DP  RH WIND       PRES   REMARKS
K.C. INTL      CLOUDY    56  51  84 SW6       30.27R
K.C. DOWNTOWN  CLOUDY    58  49  72 SW7       30.27R
LEES SUMMIT    CLOUDY    58  51  78 SW6       30.28R
OLATHE - IXD   CLOUDY    56  49  77 SW8       30.29R
OLATHE - OJC   CLOUDY    56  49  77 CALM      30.28R
LAWRENCE       CLOUDY    54  50  86 CALM      30.29R

$$

MOZ001>008-011>017-020>025-030>033-038>040-044>046-053-054-221500-
...NORTHERN AND CENTRAL MISSOURI...

CITY           SKY/WX    TMP DP  RH WIND       PRES   REMARKS
ST. JOSEPH     CLOUDY    56  50  80 CALM      30.26R
MOSBY          CLOUDY    55  50  82 CALM      30.26R
WARRENSBURG    CLOUDY    57  50  77 CALM      30.26R
WHITEMAN AFB   PTSUNNY   60  49  65 CALM      30.25R
CLINTON        CLOUDY    59  54  82 SW6       30.28R
SEDALIA        MOSUNNY   63  50  62 CALM      30.27R
WARSAW         NOT AVBL
CHILLICOTHE      N/A     63  49  60 CALM      30.25R
KIRKSVILLE     SUNNY     61  47  59 NW7       30.23R

$$

MOZ041-047>049-056>058-063>065-088>090-097-221500-
...EASTERN AND SOUTHERN MISSOURI...

CITY           SKY/WX    TMP DP  RH WIND       PRES   REMARKS
ST. LOUIS INTL MOSUNNY   63  47  55 W9        30.25R
SPIRIT OF STL  SUNNY     61  49  64 W9        30.24R
COLUMBIA       SUNNY     63  49  60 NW6       30.25S
JEFFERSON CITY SUNNY     60  49  66 CALM      30.26S
ROLLA          SUNNY     58  48  69 VRB3      30.26R
OSAGE BEACH    MOSUNNY   55  45  67 S3        30.27R
SPRINGFIELD    SUNNY     57  47  69 S10       30.28R
BRANSON        MOSUNNY   55  48  76 SE7       30.29S
JOPLIN         CLOUDY    56  48  74 S7        30.30R
WEST PLAINS    SUNNY     56  48  74 S6        30.31R

$$

IAZ060-094-KSZ022-034>040-054-083-096-NEZ052-066-093-221500-
...KANSAS...SOUTHEAST NEBRASKA AND IOWA...

CITY           SKY/WX    TMP DP  RH WIND       PRES   REMARKS
TOPEKA         CLOUDY    54  49  83 CALM      30.28R
MANHATTAN      CLOUDY    51  48  89 CALM      30.25F
EMPORIA        CLOUDY    52  48  86 SE5       30.26F
CHANUTE        CLOUDY    54  50  86 SE3       30.29R
WICHITA        RAIN      52  48  86 E9        30.22F FOG
OMAHA          CLOUDY    59  45  59 CALM      30.23R
LINCOLN        CLOUDY    55  48  77 CALM      30.24R
FALLS CITY     CLOUDY    54  48  80 CALM      30.25R
LAMONI         MOSUNNY   63  47  55 NW7       30.22R
DES MOINES     CLOUDY    62  45  53 NW5       30.21R

$$




USA.gov is the U.S. government's official web portal to all federal, state and local government web resources and services.